Location: Munkebjergskolens Observatorium
(55.3864°N, 10.3987°E)
Time: 04:46:03
(UTC+02:00)

CAS-6 - Pass Details

Date: 05 April 2023
Orbit: 610 x 632 km, 97.9° (Epoch: 31 May)

Event Time Altitude Azimuth Distance (km) Brightness Sun altitude
Exits shadow 00:31:06 23° 275° (W) 1,344 ? -27.9°
Drops below altitude 10° 00:34:19 10° 322° (NW) 2,015 ? -28.0°
Sets 00:36:56 0° 337° (NNW) 2,932 ? -28.1°
